Year,Month,Day,Hour,Minute,Value (Times are PST for temperature in C)
2010,09,19,10,56,15.00
2010,09,19,10,57,15.00
2010,09,19,10,58,15.00
2010,09,19,10,59,15.00
2010,09,19,11,00,15.00
2010,09,19,11,01,15.00
2010,09,19,11,02,15.00
2010,09,19,11,03,15.00
2010,09,19,11,04,15.00
2010,09,19,11,05,15.00
2010,09,19,11,06,15.00
2010,09,19,11,07,15.00
2010,09,19,11,08,15.00
2010,09,19,11,09,15.00
2010,09,19,11,10,15.10
2010,09,19,11,11,15.10
2010,09,19,11,12,15.20
2010,09,19,11,13,15.20
2010,09,19,11,14,15.20
2010,09,19,11,15,15.20
2010,09,19,11,16,15.20
2010,09,19,11,17,15.20
2010,09,19,11,18,15.20
2010,09,19,11,19,15.20
2010,09,19,11,20,15.20
2010,09,19,11,21,15.20
2010,09,19,11,22,15.20
2010,09,19,11,23,15.20
2010,09,19,11,24,15.30
2010,09,19,11,25,15.30
2010,09,19,11,26,15.30
2010,09,19,11,27,15.30
2010,09,19,11,28,15.30
2010,09,19,11,29,15.30
2010,09,19,11,30,15.20
2010,09,19,11,31,15.20
2010,09,19,11,32,15.30
2010,09,19,11,33,15.30
2010,09,19,11,34,15.30
2010,09,19,11,35,15.40
2010,09,19,11,36,15.40
2010,09,19,11,37,15.40
2010,09,19,11,38,15.50
2010,09,19,11,39,15.50
2010,09,19,11,40,15.50
2010,09,19,11,41,15.50
2010,09,19,11,42,15.50
2010,09,19,11,43,15.40
2010,09,19,11,44,15.50
2010,09,19,11,45,15.60
2010,09,19,11,46,15.60
2010,09,19,11,47,15.60
2010,09,19,11,48,15.60
2010,09,19,11,49,15.60
2010,09,19,11,50,15.70
2010,09,19,11,51,15.80
2010,09,19,11,52,15.80
2010,09,19,11,53,15.80
2010,09,19,11,54,15.80
2010,09,19,11,55,15.80
2010,09,19,11,56,15.80
2010,09,19,11,57,15.80
2010,09,19,11,58,15.90
2010,09,19,11,59,15.90
2010,09,19,12,00,15.90
2010,09,19,12,01,16.00
2010,09,19,12,02,16.00
2010,09,19,12,03,16.10
2010,09,19,12,04,16.10
2010,09,19,12,05,16.20
2010,09,19,12,06,16.30
2010,09,19,12,07,16.50
2010,09,19,12,08,16.60
2010,09,19,12,09,16.70
2010,09,19,12,10,16.80
2010,09,19,12,11,16.90
2010,09,19,12,12,16.90
2010,09,19,12,13,16.80
2010,09,19,12,14,16.70
2010,09,19,12,15,16.70
2010,09,19,12,16,16.70
2010,09,19,12,17,16.70
2010,09,19,12,18,16.80
2010,09,19,12,19,16.80
2010,09,19,12,20,16.90
2010,09,19,12,21,17.00
2010,09,19,12,22,17.00
2010,09,19,12,23,17.00
2010,09,19,12,24,17.00
2010,09,19,12,25,17.10
2010,09,19,12,26,17.10
2010,09,19,12,27,17.10
2010,09,19,12,28,17.10
2010,09,19,12,29,17.10
2010,09,19,12,30,17.20
2010,09,19,12,31,17.30
2010,09,19,12,32,17.30
2010,09,19,12,33,17.40
2010,09,19,12,34,17.40
2010,09,19,12,35,17.50
2010,09,19,12,36,17.60
2010,09,19,12,37,17.70
2010,09,19,12,38,17.70
2010,09,19,12,39,17.70
2010,09,19,12,40,17.80
2010,09,19,12,41,17.80
2010,09,19,12,42,17.80
2010,09,19,12,43,17.90
2010,09,19,12,44,18.00
2010,09,19,12,45,18.00
2010,09,19,12,46,18.10
2010,09,19,12,47,18.10
2010,09,19,12,48,18.10
2010,09,19,12,49,18.20
2010,09,19,12,50,18.30
2010,09,19,12,51,18.30
2010,09,19,12,52,18.30
2010,09,19,12,53,18.30
2010,09,19,12,54,18.30
2010,09,19,12,55,18.40
2010,09,19,12,56,18.40
2010,09,19,12,57,18.50
2010,09,19,12,58,18.60
2010,09,19,12,59,18.70
2010,09,19,13,00,18.80
2010,09,19,13,01,18.90
2010,09,19,13,02,19.00
2010,09,19,13,03,19.00
2010,09,19,13,04,19.10
2010,09,19,13,05,19.20
2010,09,19,13,06,19.20
2010,09,19,13,07,19.20
2010,09,19,13,08,19.30
2010,09,19,13,09,19.40
2010,09,19,13,10,19.40
2010,09,19,13,11,19.40
2010,09,19,13,12,19.40
2010,09,19,13,13,19.40
2010,09,19,13,14,19.30
2010,09,19,13,15,19.30
2010,09,19,13,16,19.20
2010,09,19,13,17,19.20
2010,09,19,13,18,19.20
2010,09,19,13,19,19.30
2010,09,19,13,20,19.30
2010,09,19,13,21,19.30
2010,09,19,13,22,19.30
2010,09,19,13,23,19.30
2010,09,19,13,24,19.30
2010,09,19,13,25,19.40
2010,09,19,13,26,19.40
2010,09,19,13,27,19.50
2010,09,19,13,28,19.50
2010,09,19,13,29,19.60
2010,09,19,13,30,19.70
2010,09,19,13,31,19.80
2010,09,19,13,32,19.80
2010,09,19,13,33,19.80
2010,09,19,13,34,19.80
2010,09,19,13,35,19.90
2010,09,19,13,36,19.90
2010,09,19,13,37,19.90
2010,09,19,13,38,19.90
2010,09,19,13,39,19.90
2010,09,19,13,40,19.90
2010,09,19,13,41,19.90
2010,09,19,13,42,19.90
2010,09,19,13,43,20.00
2010,09,19,13,44,20.10
2010,09,19,13,45,20.10
2010,09,19,13,46,20.10
2010,09,19,13,47,20.10
2010,09,19,13,48,20.10
2010,09,19,13,49,20.10
2010,09,19,13,50,20.10
2010,09,19,13,51,20.10
2010,09,19,13,52,20.10
2010,09,19,13,53,20.10
2010,09,19,13,54,20.10
2010,09,19,13,55,20.10
2010,09,19,13,56,20.10
2010,09,19,13,57,20.10
2010,09,19,13,58,20.00
2010,09,19,13,59,20.10
2010,09,19,14,00,20.00
2010,09,19,14,01,19.90
2010,09,19,14,02,19.80
2010,09,19,14,03,19.80
2010,09,19,14,04,19.80
2010,09,19,14,05,19.80
2010,09,19,14,06,19.80
2010,09,19,14,07,19.80
2010,09,19,14,08,19.80
2010,09,19,14,09,19.80
2010,09,19,14,10,19.80
2010,09,19,14,11,19.80
2010,09,19,14,12,19.70
2010,09,19,14,13,19.60
2010,09,19,14,14,19.40
2010,09,19,14,15,19.30
2010,09,19,14,16,19.30
2010,09,19,14,17,19.20
2010,09,19,14,18,19.20
2010,09,19,14,19,19.20
2010,09,19,14,20,19.20
2010,09,19,14,21,19.10
2010,09,19,14,22,19.10
2010,09,19,14,23,18.90
2010,09,19,14,24,18.80
2010,09,19,14,25,18.80
2010,09,19,14,26,18.70
2010,09,19,14,27,18.60
2010,09,19,14,28,18.60
2010,09,19,14,29,18.60
2010,09,19,14,30,18.50
2010,09,19,14,31,18.60
2010,09,19,14,32,18.60
2010,09,19,14,33,18.70
2010,09,19,14,34,18.70
2010,09,19,14,35,18.70
2010,09,19,14,36,18.80
2010,09,19,14,37,18.80
2010,09,19,14,38,18.80
2010,09,19,14,39,18.90
2010,09,19,14,40,18.90
2010,09,19,14,41,18.80
2010,09,19,14,42,18.70
2010,09,19,14,43,18.70
2010,09,19,14,44,18.60
2010,09,19,14,45,18.60
2010,09,19,14,46,18.50
2010,09,19,14,47,18.50
2010,09,19,14,48,18.40
2010,09,19,14,49,18.40
2010,09,19,14,50,18.40
2010,09,19,14,51,18.30
2010,09,19,14,52,18.30
2010,09,19,14,53,18.30
2010,09,19,14,54,18.30
2010,09,19,14,55,18.30
2010,09,19,14,56,18.30
2010,09,19,14,57,18.30
2010,09,19,14,58,18.30
2010,09,19,14,59,18.30
2010,09,19,15,00,18.30
2010,09,19,15,01,18.30
2010,09,19,15,02,18.20
2010,09,19,15,03,18.20
2010,09,19,15,04,18.20
2010,09,19,15,05,18.10
2010,09,19,15,06,18.10
2010,09,19,15,07,18.10
2010,09,19,15,08,18.00
2010,09,19,15,09,17.90
2010,09,19,15,10,17.90
2010,09,19,15,11,17.90
2010,09,19,15,12,17.80
2010,09,19,15,13,17.80
2010,09,19,15,14,17.80
2010,09,19,15,15,17.70
2010,09,19,15,16,17.70
2010,09,19,15,17,17.70
2010,09,19,15,18,17.60
2010,09,19,15,19,17.60
2010,09,19,15,20,17.50
2010,09,19,15,21,17.50
2010,09,19,15,22,17.50
2010,09,19,15,23,17.40
2010,09,19,15,24,17.40
2010,09,19,15,25,17.30
2010,09,19,15,26,17.30
2010,09,19,15,27,17.30
2010,09,19,15,28,17.30
2010,09,19,15,29,17.20
2010,09,19,15,30,17.20
2010,09,19,15,31,17.20
2010,09,19,15,32,17.20
2010,09,19,15,33,17.20
2010,09,19,15,34,17.20
2010,09,19,15,35,17.20
2010,09,19,15,36,17.20
2010,09,19,15,37,17.20
2010,09,19,15,38,17.20
2010,09,19,15,39,17.20
2010,09,19,15,40,17.20
2010,09,19,15,41,17.20
2010,09,19,15,42,17.20
2010,09,19,15,43,17.20
2010,09,19,15,44,17.20
2010,09,19,15,45,17.20
2010,09,19,15,46,17.20
2010,09,19,15,47,17.20
2010,09,19,15,48,17.20
2010,09,19,15,49,17.10
2010,09,19,15,50,17.10
2010,09,19,15,51,17.10
2010,09,19,15,52,17.10
2010,09,19,15,53,17.10
2010,09,19,15,54,17.10
2010,09,19,15,55,17.10
2010,09,19,15,56,17.10
2010,09,19,15,57,17.10
2010,09,19,15,58,17.10
2010,09,19,15,59,17.00
2010,09,19,16,00,17.00
2010,09,19,16,01,17.00
2010,09,19,16,02,16.90
2010,09,19,16,03,16.90
2010,09,19,16,04,16.90
2010,09,19,16,05,16.90
2010,09,19,16,06,16.80
2010,09,19,16,07,16.80
2010,09,19,16,08,16.80
2010,09,19,16,09,16.80
2010,09,19,16,10,16.80
2010,09,19,16,11,16.70
2010,09,19,16,12,16.70
2010,09,19,16,13,16.70
2010,09,19,16,14,16.70
2010,09,19,16,15,16.70
2010,09,19,16,16,16.70
2010,09,19,16,17,16.70
2010,09,19,16,18,16.70
2010,09,19,16,19,16.70
2010,09,19,16,20,16.70
2010,09,19,16,21,16.70
2010,09,19,16,22,16.70
2010,09,19,16,23,16.70
2010,09,19,16,24,16.70
2010,09,19,16,25,16.70
2010,09,19,16,26,16.80
2010,09,19,16,27,16.80
2010,09,19,16,28,16.80
2010,09,19,16,29,16.90
2010,09,19,16,30,16.90
2010,09,19,16,31,16.90
2010,09,19,16,32,17.00
2010,09,19,16,33,17.00
2010,09,19,16,34,17.10
2010,09,19,16,35,17.10
2010,09,19,16,36,17.10
2010,09,19,16,37,17.20
2010,09,19,16,38,17.20
2010,09,19,16,39,17.30
2010,09,19,16,40,17.30
2010,09,19,16,41,17.30
2010,09,19,16,42,17.30
2010,09,19,16,43,17.30
2010,09,19,16,44,17.30
2010,09,19,16,45,17.30
2010,09,19,16,46,17.30
2010,09,19,16,47,17.20
2010,09,19,16,48,17.20
2010,09,19,16,49,17.10
2010,09,19,16,50,17.10
2010,09,19,16,51,17.10
2010,09,19,16,52,17.10
2010,09,19,16,53,17.00
2010,09,19,16,54,17.00
2010,09,19,16,55,16.90
2010,09,19,16,56,16.90
2010,09,19,16,57,16.80
2010,09,19,16,58,16.80
2010,09,19,16,59,16.70
2010,09,19,17,00,16.70
2010,09,19,17,01,16.70
2010,09,19,17,02,16.70
2010,09,19,17,03,16.70
2010,09,19,17,04,16.60
2010,09,19,17,05,16.60
2010,09,19,17,06,16.60
2010,09,19,17,07,16.60
2010,09,19,17,08,16.60
2010,09,19,17,09,16.60
2010,09,19,17,10,16.60
2010,09,19,17,11,16.50
2010,09,19,17,12,16.50
2010,09,19,17,13,16.50
2010,09,19,17,14,16.50
2010,09,19,17,15,16.50
2010,09,19,17,16,16.50
2010,09,19,17,17,16.40
2010,09,19,17,18,16.40
2010,09,19,17,19,16.40
2010,09,19,17,20,16.40
2010,09,19,17,21,16.40
2010,09,19,17,22,16.40
2010,09,19,17,23,16.40
2010,09,19,17,24,16.40
2010,09,19,17,25,16.40
2010,09,19,17,26,16.30
2010,09,19,17,27,16.30
2010,09,19,17,28,16.30
2010,09,19,17,29,16.30
2010,09,19,17,30,16.30
2010,09,19,17,31,16.20
2010,09,19,17,32,16.20
2010,09,19,17,33,16.20
2010,09,19,17,34,16.20
2010,09,19,17,35,16.20
2010,09,19,17,36,16.20
2010,09,19,17,37,16.20
2010,09,19,17,38,16.20
2010,09,19,17,39,16.20
2010,09,19,17,40,16.20
2010,09,19,17,41,16.20
2010,09,19,17,42,16.20
2010,09,19,17,43,16.20
2010,09,19,17,44,16.20
2010,09,19,17,45,16.20
2010,09,19,17,46,16.20
2010,09,19,17,47,16.10
2010,09,19,17,48,16.10
2010,09,19,17,49,16.10
2010,09,19,17,50,16.10
2010,09,19,17,51,16.10
2010,09,19,17,52,16.10
2010,09,19,17,53,16.10
2010,09,19,17,54,16.10
2010,09,19,17,55,16.00
2010,09,19,17,56,16.00
2010,09,19,17,57,16.00
2010,09,19,17,58,16.00
2010,09,19,17,59,16.00
2010,09,19,18,00,15.90
2010,09,19,18,01,15.90
2010,09,19,18,02,15.90
2010,09,19,18,03,15.80
2010,09,19,18,04,15.80
2010,09,19,18,05,15.80
2010,09,19,18,06,15.80
2010,09,19,18,07,15.70
2010,09,19,18,08,15.70
2010,09,19,18,09,15.60
2010,09,19,18,10,15.60
2010,09,19,18,11,15.60
2010,09,19,18,12,15.50
2010,09,19,18,13,15.50
2010,09,19,18,14,15.40
2010,09,19,18,15,15.40
2010,09,19,18,16,15.40
2010,09,19,18,17,15.30
2010,09,19,18,18,15.30
2010,09,19,18,19,15.30
2010,09,19,18,20,15.30
2010,09,19,18,21,15.20
2010,09,19,18,22,15.20
2010,09,19,18,23,15.20
2010,09,19,18,24,15.20
2010,09,19,18,25,15.20
2010,09,19,18,26,15.20
2010,09,19,18,27,15.20
2010,09,19,18,28,15.20
2010,09,19,18,29,15.20
2010,09,19,18,30,15.20
2010,09,19,18,31,15.20
2010,09,19,18,32,15.20
2010,09,19,18,33,15.20
2010,09,19,18,34,15.20
2010,09,19,18,35,15.20
2010,09,19,18,36,15.20
2010,09,19,18,37,15.10
2010,09,19,18,38,15.10
2010,09,19,18,39,15.10
2010,09,19,18,40,15.00
2010,09,19,18,41,15.00
2010,09,19,18,42,15.00
2010,09,19,18,43,15.00
2010,09,19,18,44,15.00
2010,09,19,18,45,15.00
2010,09,19,18,46,15.00
2010,09,19,18,47,15.00
2010,09,19,18,48,15.00
2010,09,19,18,49,15.00
2010,09,19,18,50,15.00
2010,09,19,18,51,15.00
2010,09,19,18,52,15.10
2010,09,19,18,53,15.20
2010,09,19,18,54,15.30
2010,09,19,18,55,15.40
2010,09,19,18,56,15.50
2010,09,19,18,57,15.60
2010,09,19,18,58,15.60
2010,09,19,18,59,15.70
2010,09,19,19,00,15.70
2010,09,19,19,01,15.70
2010,09,19,19,02,15.70
2010,09,19,19,03,15.80
2010,09,19,19,04,15.80
2010,09,19,19,05,15.90
2010,09,19,19,06,15.90
2010,09,19,19,07,16.00
2010,09,19,19,08,16.00
2010,09,19,19,09,16.10
2010,09,19,19,10,16.10
2010,09,19,19,11,16.10
2010,09,19,19,12,16.10
2010,09,19,19,13,16.10
2010,09,19,19,14,16.10
2010,09,19,19,15,16.10
2010,09,19,19,16,16.20
2010,09,19,19,17,16.20
2010,09,19,19,18,16.20
2010,09,19,19,19,16.20
2010,09,19,19,20,16.30
2010,09,19,19,21,16.30
2010,09,19,19,22,16.30
2010,09,19,19,23,16.20
2010,09,19,19,24,16.20
2010,09,19,19,25,16.20
2010,09,19,19,26,16.20
2010,09,19,19,27,16.10
2010,09,19,19,28,16.10
2010,09,19,19,29,16.10
2010,09,19,19,30,16.10
2010,09,19,19,31,16.10
2010,09,19,19,32,16.10
2010,09,19,19,33,16.10
2010,09,19,19,34,16.10
2010,09,19,19,35,16.10
2010,09,19,19,36,16.10
2010,09,19,19,37,16.10
2010,09,19,19,38,16.10
2010,09,19,19,39,16.10
2010,09,19,19,40,16.10
2010,09,19,19,41,16.10
2010,09,19,19,42,16.10
2010,09,19,19,43,16.10
2010,09,19,19,44,16.10
2010,09,19,19,45,16.20
2010,09,19,19,46,16.20
2010,09,19,19,47,16.20
2010,09,19,19,48,16.20
2010,09,19,19,49,16.10
2010,09,19,19,50,16.10
2010,09,19,19,51,16.10
2010,09,19,19,52,16.10
2010,09,19,19,53,16.00
2010,09,19,19,54,16.00
2010,09,19,19,55,15.90
2010,09,19,19,56,15.90
2010,09,19,19,57,15.80
2010,09,19,19,58,15.80
2010,09,19,19,59,15.80
2010,09,19,20,00,15.80
2010,09,19,20,01,15.70
2010,09,19,20,02,15.70
2010,09,19,20,03,15.70
2010,09,19,20,04,15.70
2010,09,19,20,05,15.70
2010,09,19,20,06,15.70
2010,09,19,20,07,15.80
2010,09,19,20,08,15.70
2010,09,19,20,09,15.70
2010,09,19,20,10,15.60
2010,09,19,20,11,15.60
2010,09,19,20,12,15.50
2010,09,19,20,13,15.40
2010,09,19,20,14,15.40
2010,09,19,20,15,15.30
2010,09,19,20,16,15.20
2010,09,19,20,17,15.20
2010,09,19,20,18,15.10
2010,09,19,20,19,15.10
2010,09,19,20,20,15.10
2010,09,19,20,21,15.00
2010,09,19,20,22,15.00
2010,09,19,20,23,15.00
2010,09,19,20,24,15.00
2010,09,19,20,25,15.00
2010,09,19,20,26,15.00
2010,09,19,20,27,15.00
2010,09,19,20,28,15.00
2010,09,19,20,29,15.00
2010,09,19,20,30,15.20
2010,09,19,20,31,15.30
2010,09,19,20,32,15.30
2010,09,19,20,33,15.40
2010,09,19,20,34,15.40
2010,09,19,20,35,15.40
2010,09,19,20,36,15.50
2010,09,19,20,37,15.50
2010,09,19,20,38,15.60
2010,09,19,20,39,15.60
2010,09,19,20,40,15.70
2010,09,19,20,41,15.70
2010,09,19,20,42,15.80
2010,09,19,20,43,15.90
2010,09,19,20,44,16.00
2010,09,19,20,45,16.00
2010,09,19,20,46,16.00
2010,09,19,20,47,16.10
2010,09,19,20,48,16.10
2010,09,19,20,49,16.00
2010,09,19,20,50,16.00
2010,09,19,20,51,15.90
2010,09,19,20,52,15.80
2010,09,19,20,53,15.80
2010,09,19,20,54,15.70
2010,09,19,20,55,15.70
2010,09,19,20,56,15.60
2010,09,19,20,57,15.60
2010,09,19,20,58,15.50
2010,09,19,20,59,15.40
2010,09,19,21,00,15.40
2010,09,19,21,01,15.30
2010,09,19,21,02,15.30
2010,09,19,21,03,15.30
2010,09,19,21,04,15.20
2010,09,19,21,05,15.20
2010,09,19,21,06,15.20
2010,09,19,21,07,15.10
2010,09,19,21,08,15.00
2010,09,19,21,09,15.00
2010,09,19,21,10,15.00
2010,09,19,21,11,15.00
2010,09,19,21,12,15.00
2010,09,19,21,13,15.00
2010,09,19,21,14,15.00
2010,09,19,21,15,15.00
2010,09,19,21,16,15.00
2010,09,19,21,17,14.90
2010,09,19,21,18,14.90
2010,09,19,21,19,14.90
2010,09,19,21,20,14.80
2010,09,19,21,21,14.80
2010,09,19,21,22,14.80
2010,09,19,21,23,14.70
2010,09,19,21,24,14.70
2010,09,19,21,25,14.70
2010,09,19,21,26,14.60
2010,09,19,21,27,14.60
2010,09,19,21,28,14.60
2010,09,19,21,29,14.60
2010,09,19,21,30,14.50
2010,09,19,21,31,14.50
2010,09,19,21,32,14.50
2010,09,19,21,33,14.40
2010,09,19,21,34,14.40
2010,09,19,21,35,14.40
2010,09,19,21,36,14.30
2010,09,19,21,37,14.30
2010,09,19,21,38,14.20
2010,09,19,21,39,14.20
2010,09,19,21,40,14.10
2010,09,19,21,41,14.10
2010,09,19,21,42,14.10
2010,09,19,21,43,14.00
2010,09,19,21,44,13.90
2010,09,19,21,45,13.90
2010,09,19,21,46,13.90
2010,09,19,21,47,13.80
2010,09,19,21,48,13.80
2010,09,19,21,49,13.80
2010,09,19,21,50,13.80
2010,09,19,21,51,13.70
2010,09,19,21,52,13.70
2010,09,19,21,53,13.70
2010,09,19,21,54,13.70
2010,09,19,21,55,13.70
2010,09,19,21,56,13.60
2010,09,19,21,57,13.60
2010,09,19,21,58,13.60
2010,09,19,21,59,13.60
2010,09,19,22,00,13.60
2010,09,19,22,01,13.60
2010,09,19,22,02,13.50
2010,09,19,22,03,13.50
2010,09,19,22,04,13.50
2010,09,19,22,05,13.50
2010,09,19,22,06,13.50
2010,09,19,22,07,13.50
2010,09,19,22,08,13.50
2010,09,19,22,09,13.50
2010,09,19,22,10,13.50
2010,09,19,22,11,13.50
2010,09,19,22,12,13.50
2010,09,19,22,13,13.50
2010,09,19,22,14,13.50
2010,09,19,22,15,13.50
2010,09,19,22,16,13.50
2010,09,19,22,17,13.50
2010,09,19,22,18,13.50
2010,09,19,22,19,13.40
2010,09,19,22,20,13.40
2010,09,19,22,21,13.40
2010,09,19,22,22,13.50
2010,09,19,22,23,13.50
2010,09,19,22,24,13.50
2010,09,19,22,25,13.50
2010,09,19,22,26,13.50
2010,09,19,22,27,13.50
2010,09,19,22,28,13.50
2010,09,19,22,29,13.50
2010,09,19,22,30,13.50
2010,09,19,22,31,13.50
2010,09,19,22,32,13.60
2010,09,19,22,33,13.60
2010,09,19,22,34,13.60
2010,09,19,22,35,13.60
2010,09,19,22,36,13.60
2010,09,19,22,37,13.60
2010,09,19,22,38,13.60
2010,09,19,22,39,13.60
2010,09,19,22,40,13.60
2010,09,19,22,41,13.60
2010,09,19,22,42,13.70
2010,09,19,22,43,13.70
2010,09,19,22,44,13.70
2010,09,19,22,45,13.70
2010,09,19,22,46,13.70
2010,09,19,22,47,13.70
2010,09,19,22,48,13.70
2010,09,19,22,49,13.70
2010,09,19,22,50,13.70
2010,09,19,22,51,13.70
2010,09,19,22,52,13.60
2010,09,19,22,53,13.60
2010,09,19,22,54,13.60
2010,09,19,22,55,13.60
2010,09,19,22,56,13.60
2010,09,19,22,57,13.60
2010,09,19,22,58,13.60
2010,09,19,22,59,13.60
2010,09,19,23,00,13.50
2010,09,19,23,01,13.50
2010,09,19,23,02,13.50
2010,09,19,23,03,13.50
2010,09,19,23,04,13.50
2010,09,19,23,05,13.40
2010,09,19,23,06,13.40
2010,09,19,23,07,13.40
2010,09,19,23,08,13.40
2010,09,19,23,09,13.40
2010,09,19,23,10,13.40
2010,09,19,23,11,13.40
2010,09,19,23,12,13.40
2010,09,19,23,13,13.40
2010,09,19,23,14,13.40
2010,09,19,23,15,13.40
2010,09,19,23,16,13.40
2010,09,19,23,17,13.40
2010,09,19,23,18,13.40
2010,09,19,23,19,13.40
2010,09,19,23,20,13.40
2010,09,19,23,21,13.40
2010,09,19,23,22,13.50
2010,09,19,23,23,13.40
2010,09,19,23,24,13.50
2010,09,19,23,25,13.50
2010,09,19,23,26,13.50
2010,09,19,23,27,13.50
2010,09,19,23,28,13.50
2010,09,19,23,29,13.50
2010,09,19,23,30,13.50
2010,09,19,23,31,13.50
2010,09,19,23,32,13.40
2010,09,19,23,33,13.40
2010,09,19,23,34,13.40
2010,09,19,23,35,13.40
2010,09,19,23,36,13.40
2010,09,19,23,37,13.40
2010,09,19,23,38,13.40
2010,09,19,23,39,13.40
2010,09,19,23,40,13.40
2010,09,19,23,41,13.40
2010,09,19,23,42,13.40
2010,09,19,23,43,13.40
2010,09,19,23,44,13.40
2010,09,19,23,45,13.40
2010,09,19,23,46,13.40
2010,09,19,23,47,13.40
2010,09,19,23,48,13.40
2010,09,19,23,49,13.40
2010,09,19,23,50,13.40
2010,09,19,23,51,13.40
2010,09,19,23,52,13.40
2010,09,19,23,53,13.40
2010,09,19,23,54,13.40
2010,09,19,23,55,13.40
2010,09,19,23,56,13.40
2010,09,19,23,57,13.40
2010,09,19,23,58,13.40
2010,09,19,23,59,13.40
